Tracking 31027 objects as of 19-Jul-2025
HD Live streaming from Space Station
objects crossing your sky now

BREEZE-M R/B

Track BREEZE-M R/B now!


NORAD ID: 28869
Int'l Code: 2005-036B
Perigee: 3,153.9 km
Apogee: 35,500.5 km
Inclination: 9.4 °
Period: 683.3 minutes
Semi major axis: 25698 km
RCS: 6.7821 m2 (large)
Launch date: September 8, 2005
Source: Commonwealth of Independent States (former USSR) (CIS)
Launch site: TYURATAM MISSILE AND SPACE COMPLEX (TTMTR)

Note: This is a ROCKET BODY
Your satellite tracking list
DMSP 5D-2 F13 DEB
Track 1 satellite(s)




NASA's NSSDC Master Catalog

Two Line Element Set (TLE):
1 28869U 05036B   25199.61467536 -.00000175  00000-0  00000-0 0  9995
2 28869   9.4067 250.3279 6293538  63.1930 346.7584  2.10740820152859
Source of the keplerian elements: AFSPC